Location: Mat�lon
(46.2791°N, 7.1028°E)
Time: 17:02:41
(UTC+00:00)

NOSS 2-2 (E) - Pass Details

Date: 18 September 2020
Orbit: 468 x 1739 km, 63.3° (Epoch: 26 October)

Event Time Altitude Azimuth Distance (km) Brightness Sun altitude
Rises 19:11:32 0° 227° (SW) 2,496 7.0 -16.9°
Reaches altitude 10° 19:13:34 10° 231° (SW) 1,627 6.1 -17.2°
Maximum altitude 19:17:02 61° 312° (NW) 568 3.6 -17.7°
Drops below altitude 10° 19:21:00 10° 34° (NE) 1,861 5.9 -18.4°
Sets 19:23:29 0° 38° (NE) 2,904 6.9 -18.8°
